Location: Wald
(31.7579°N, 86.6655°W)
Time: 11:27:42
(UTC+00:00)

Cosmos 2181 Rocket - Pass Details

Date: 14 July 2020
Orbit: 951 x 1015 km, 82.9° (Epoch: 08 August)

Event Time Altitude Azimuth Distance (km) Brightness Sun altitude
Rises 02:49:53 0° 351° (N) 3,685 7.9 -21.0°
Reaches altitude 10° 02:52:25 10° 350° (N) 2,725 7.1 -21.4°
Maximum altitude 02:58:37 72° 267° (W) 1,011 4.1 -22.3°
Enters shadow 03:01:55 29° 189° (S) 1,684 4.9 -22.8°
